TimeEEST,TemperatureF,Dew PointF,Humidity,Sea Level PressureIn,VisibilityMPH,Wind Direction,Wind SpeedMPH,Gust SpeedMPH,PrecipitationIn,Events,Conditions,WindDirDegrees,DateUTC
12:20 AM,62.6,48.2,59,29.86,-9999.0,NE,8.1,-,N/A,,Clear,40,2012-10-04 21:20:00
12:50 AM,62.6,46.4,55,29.86,-9999.0,NE,5.8,-,N/A,,Clear,40,2012-10-04 21:50:00
1:20 AM,62.6,46.4,55,29.86,-9999.0,NNE,6.9,-,N/A,,Clear,30,2012-10-04 22:20:00
1:50 AM,62.6,46.4,55,29.86,-9999.0,NE,6.9,-,N/A,,Clear,40,2012-10-04 22:50:00
2:20 AM,60.8,44.6,55,29.86,-9999.0,NNE,3.5,-,N/A,,Clear,20,2012-10-04 23:20:00
3:20 AM,57.2,44.6,63,29.86,-9999.0,North,5.8,-,N/A,,Clear,10,2012-10-05 00:20:00
3:50 AM,57.2,44.6,63,29.89,-9999.0,NE,8.1,-,N/A,,Clear,40,2012-10-05 00:50:00
4:20 AM,55.4,44.6,67,29.89,-9999.0,NNE,6.9,-,N/A,,Clear,30,2012-10-05 01:20:00
4:50 AM,55.4,46.4,72,29.89,-9999.0,NNE,6.9,-,N/A,,Clear,30,2012-10-05 01:50:00
5:20 AM,55.4,44.6,67,29.89,-9999.0,NNE,6.9,-,N/A,,Clear,20,2012-10-05 02:20:00
5:50 AM,57.2,44.6,63,29.89,-9999.0,ENE,6.9,-,N/A,,Clear,60,2012-10-05 02:50:00
6:20 AM,55.4,44.6,67,29.92,-9999.0,NE,6.9,-,N/A,,Clear,40,2012-10-05 03:20:00
6:50 AM,57.2,46.4,67,29.92,-9999.0,NNE,5.8,-,N/A,,Clear,30,2012-10-05 03:50:00
7:20 AM,60.8,46.4,59,29.92,-9999.0,North,4.6,-,N/A,,Clear,10,2012-10-05 04:20:00
7:50 AM,64.4,46.4,52,29.92,-9999.0,NNW,3.5,-,N/A,,Clear,340,2012-10-05 04:50:00
8:20 AM,66.2,46.4,49,29.95,-9999.0,Variable,1.2,-,N/A,,Clear,0,2012-10-05 05:20:00
8:50 AM,69.8,46.4,43,29.95,-9999.0,West,4.6,-,N/A,,Clear,260,2012-10-05 05:50:00
9:20 AM,71.6,46.4,41,29.95,-9999.0,West,3.5,-,N/A,,Clear,260,2012-10-05 06:20:00
9:50 AM,75.2,44.6,34,29.95,-9999.0,WNW,3.5,-,N/A,,Clear,300,2012-10-05 06:50:00
10:20 AM,80.6,42.8,26,29.95,-9999.0,Variable,1.2,-,N/A,,Clear,0,2012-10-05 07:20:00
10:50 AM,80.6,42.8,26,29.95,-9999.0,West,5.8,-,N/A,,Clear,260,2012-10-05 07:50:00
11:20 AM,82.4,42.8,25,29.95,-9999.0,Variable,4.6,-,N/A,,Clear,0,2012-10-05 08:20:00
11:50 AM,84.2,42.8,23,29.95,6.2,WSW,6.9,-,N/A,,Partly Cloudy,250,2012-10-05 08:50:00
12:20 PM,84.2,41.0,22,29.95,6.2,WSW,6.9,-,N/A,,Partly Cloudy,250,2012-10-05 09:20:00
12:50 PM,86.0,41.0,20,29.92,6.2,WSW,9.2,-,N/A,,Partly Cloudy,250,2012-10-05 09:50:00
1:20 PM,86.0,41.0,20,29.92,6.2,SW,9.2,-,N/A,,Partly Cloudy,230,2012-10-05 10:20:00
1:50 PM,86.0,39.2,19,29.92,6.2,Variable,5.8,-,N/A,,Partly Cloudy,0,2012-10-05 10:50:00
2:20 PM,87.8,39.2,18,29.92,6.2,WSW,4.6,-,N/A,,Scattered Clouds,240,2012-10-05 11:20:00
2:50 PM,87.8,35.6,16,29.89,6.2,SW,10.4,-,N/A,,Scattered Clouds,220,2012-10-05 11:50:00
3:20 PM,87.8,37.4,17,29.89,6.2,WSW,6.9,-,N/A,,Scattered Clouds,240,2012-10-05 12:20:00
3:50 PM,87.8,37.4,17,29.89,6.2,WSW,10.4,-,N/A,,Scattered Clouds,240,2012-10-05 12:50:00
4:20 PM,87.8,35.6,16,29.92,6.2,SW,10.4,-,N/A,,Scattered Clouds,230,2012-10-05 13:20:00
4:50 PM,84.2,39.2,20,29.92,6.2,WSW,6.9,-,N/A,,Scattered Clouds,240,2012-10-05 13:50:00
5:20 PM,84.2,39.2,20,29.92,6.2,SW,6.9,-,N/A,,Scattered Clouds,230,2012-10-05 14:20:00
5:50 PM,80.6,42.8,26,29.92,6.2,SW,6.9,-,N/A,,Scattered Clouds,230,2012-10-05 14:50:00
6:20 PM,78.8,41.0,26,29.92,-9999.0,SW,4.6,-,N/A,,Clear,220,2012-10-05 15:20:00
6:50 PM,75.2,39.2,27,29.95,-9999.0,SW,6.9,-,N/A,,Clear,220,2012-10-05 15:50:00
7:20 PM,75.2,41.0,29,29.95,-9999.0,WSW,4.6,-,N/A,,Clear,250,2012-10-05 16:20:00
7:50 PM,73.4,41.0,31,29.95,-9999.0,Variable,1.2,-,N/A,,Clear,0,2012-10-05 16:50:00
8:20 PM,69.8,39.2,33,29.95,-9999.0,Variable,1.2,-,N/A,,Clear,0,2012-10-05 17:20:00
8:50 PM,69.8,39.2,33,29.95,-9999.0,East,4.6,-,N/A,,Clear,90,2012-10-05 17:50:00
9:20 PM,66.2,37.4,35,29.98,-9999.0,North,3.5,-,N/A,,Clear,10,2012-10-05 18:20:00
9:50 PM,64.4,41.0,42,29.98,-9999.0,NNE,6.9,-,N/A,,Clear,20,2012-10-05 18:50:00
10:20 PM,64.4,39.2,40,29.98,-9999.0,NE,8.1,-,N/A,,Clear,40,2012-10-05 19:20:00
10:50 PM,64.4,39.2,40,29.98,-9999.0,NE,5.8,-,N/A,,Clear,40,2012-10-05 19:50:00
11:20 PM,64.4,41.0,42,29.98,-9999.0,NE,4.6,-,N/A,,Clear,40,2012-10-05 20:20:00
11:50 PM,64.4,41.0,42,29.98,-9999.0,NNE,5.8,-,N/A,,Clear,30,2012-10-05 20:50:00